Regional Weather Roundup
Issued by NWS

Home | Current Version | Previous Version | Text Only | Print | Product List | Glossary Off
Versions: 1 2 3 4 5 6 7 8 9 10 11 12 13 14 15 16 17 18 19 20 21 22 23 24 25 26 27 28 29 30 31 32 33 34 35 36 37 38 39 40 41 42 43 44 45 46 47 48 49 50

000
ASUS43 KLOT 032100
RWRIL

ILLINOIS REGIONAL WEATHER ROUNDUP
NATIONAL WEATHER SERVICE CHICAGO/ROMEOVILLE IL
400 PM CDT MON AUG 03 2015

NOTE: "FAIR" INDICATES FEW OR NO CLOUDS BELOW 12,000 FEET WITH NO
SIGNIFICANT WEATHER AND/OR OBSTRUCTIONS TO VISIBILITY.

* THESE STATIONS ARE NOT UNDER NWS QUALITY CONTROL. THEY ALSO MAY NOT
  REPORT WEATHER SUCH AS PRECIPITATION OR FOG.

ILZ001-002-007-009-015-016-024-032200-
NORTHWEST ILLINOIS

CITY           SKY/WX    TMP DP  RH WIND       PRES   REMARKS
MOLINE         SUNNY     82  53  36 VRB6      29.91S HX  81
STERLING*      SUNNY     81  54  39 W10       29.87F HX  80
$$

ILZ003-004-008-010-011-017-018-032200-
NORTH CENTRAL ILLINOIS

CITY           SKY/WX    TMP DP  RH WIND       PRES   REMARKS
ROCKFORD       MOSUNNY   81  48  31 W13G24    29.89S HX  80
$$

ILZ005-006-012>014-019>023-032200-
NORTHEAST ILLINOIS

CITY           SKY/WX    TMP DP  RH WIND       PRES   REMARKS
CHICAGO-OHARE  MOSUNNY   82  47  29 W15       29.85S HX  80
CHICAGO-MIDWAY MOSUNNY   83  46  27 W12G20    29.85S HX  81
AURORA         SUNNY     80  50  34 W13G21    29.88S HX  80
JOLIET*        SUNNY     83  51  32 W9G17     29.88R HX  81
WAUKEGAN       SUNNY     78  49  35 VRB6G18   29.85R
DUPAGE AIRPORT SUNNY     80  49  33 NW10      29.87S
WHEELING       SUNNY     81  45  28 N16G22    29.86S HX  80
ROMEOVILLE*    SUNNY     79  47  32 NW12G17   29.87S
NORTHERLY ISL    N/A     81  42  25 W5          N/A
$$

LMZ740>746-032200-
SOUTHERN LAKE MICHIGAN

STATION/POSITION SKY/WX   TEMP    WIND        PRES    VSBY  WAVE
                          AIR SEA DIR/SP/G                  HT/PER
                          (F)     (DEG/KT/KT) (MB)    (MI)  (FT/S)
HARRISON CRIB              77     340/  7/ 10   N/A
BURNHAM HARBOR             81     300/  7/ 16   N/A
CALUMET HARBOR             74      60/  7/ 10   N/A
BURNS HARBOR               75      70/  5/  7 1011.5F
MICHIGAN CITY              73      10/  2/  3   N/A
MICHIGAN CITY 6N           73 75   30/  2/  4   N/A           2/ 4
ST. JOSEPH                 72 73  340/  6/  8   N/A           2/ 4
$$

ILZ025>027-034>036-040-047-049-050-058-095>099-032200-
WEST-CENTRAL ILLINOIS

CITY           SKY/WX    TMP DP  RH WIND       PRES   REMARKS
QUINCY         PTSUNNY   83  63  50 N7        29.92F HX  84
MACOMB*        SUNNY     82  57  43 NW6       29.95S HX  81
$$

ILZ028>032-037-038-041>044-048-051>054-059>061-032200-
CENTRAL ILLINOIS

CITY           SKY/WX    TMP DP  RH WIND       PRES   REMARKS
DECATUR        MOSUNNY   86  63  45 W13       29.90S HX  87
PEORIA         SUNNY     84  57  39 NW7       29.91F HX  83
SPRINGFIELD    MOSUNNY   85  67  54 W9        29.91F HX  87
TAYLORVILLE    NOT AVBL
$$

ILZ033-039-045-046-055>057-062-063-032200-
EAST-CENTRAL ILLINOIS

CITY           SKY/WX    TMP DP  RH WIND       PRES   REMARKS
CHAMPAIGN      MOSUNNY   85  64  49 W12G18    29.89S HX  86
DANVILLE*      MOSUNNY   84  67  57 W6        29.84S HX  87
MATTOON        SUNNY     88  61  40 W15       29.88S HX  88
$$

ILZ079-100>102-032200-
SOUTHWEST ILLINOIS

CITY           SKY/WX    TMP DP  RH WIND       PRES   REMARKS
BELLEVILLE     MOSUNNY   92  69  47 NW8       29.89F HX  97
CAHOKIA*       MOSUNNY   95  63  34 W8        29.90F HX  96
$$

ILZ064>066-069>071-074>076-080>082-084>086-088>090-092>094-032200-
SOUTH-CENTRAL ILLINOIS

CITY           SKY/WX    TMP DP  RH WIND       PRES   REMARKS
CARBONDALE     MOSUNNY   91  72  53 W8        29.90S HX  98
MARION         PTSUNNY   91  73  55 W9        29.91S HX 100
MT. VERNON     SUNNY     91  68  46 W9        29.90S HX  95
SALEM*         SUNNY     90  65  43 NW8G18    29.90S HX  92
$$

ILZ067-068-072-073-078-083-087-091-032200-
SOUTHEAST ILLINOIS

CITY           SKY/WX    TMP DP  RH WIND       PRES   REMARKS
LAWRENCEVILLE  MOSUNNY   92  68  45 W17       29.87R HX  96
FLORA*         SUNNY     91  65  42 NW15      29.89S HX  92
HARRISBURG*    SUNNY     93  70  47 W14       29.90S HX  99
ROBINSON*      SUNNY     88  67  49 NW10G16   29.88R HX  91
CARMI*         SUNNY     90  65  44 W9        29.88S HX  92
$$

ABBREVIATIONS USED IN REMARKS
   TC - TEMPERATURE IN CELSIUS
  WCI - WIND CHILL INDEX
   HX - HEAT INDEX
  VSB - VISIBILITY
$$




USA.gov is the U.S. government's official web portal to all federal, state and local government web resources and services.